Location: Austin
(30.3000°N, 97.7500°W)
Time: 07:59:26
(UTC-06:00)

Fermi - Pass Details

Date: 14 November 2025
Orbit: 492 x 503 km, 25.6° (Epoch: 07 December)

Event Time Altitude Azimuth Distance (km) Brightness Sun altitude
Rises 18:32:47 0° 250° (WSW) 2,567 9.3 -12.8°
Reaches altitude 10° 18:35:06 10° 242° (WSW) 1,687 7.6 -13.3°
Maximum altitude 18:38:43 37° 174° (S) 778 4.6 -14.0°
Enters shadow 18:41:01 19° 116° (ESE) 1,228 5.1 -14.5°
